Bangkok, Thaïlande

02:24 ICT le 06 juillet 2015 (GMT +0700)
Khu Khot | | Change Station
CLOSE
Current Station
Stations météorologiques personnelles
Location: Pathum Thani, PATHUM THANI
Altitude: 15 ft
Stations météo à proximité

Alt. 15 ft 13.96 °N, 100.65 °E | Updated 20 seconds ago

Mostly Cloudy
Nuageux
83.8 ° F
Paraît 92 ° F
N
1.1
Vent Variable Vent de SO
Gusts 1.6 mph

Aujourd'hui
Haut(e) -- | Bas -- ° F
--% Risque de précip.
Hier
Haut(e) -- | Bas -- ° F
Precip. -- pouce
5:54 AM 6:49 PM
Lune gibbeuse décroissante, 82% visible
Pression 29.68 pouce
Visibilité 6.2 Miles terrestres
Nuages Peu 2000 ft
Nuageux 12000 ft
Nuageux 30000 ft
indice de chaleur 92 ° F
Point de rosée 75 ° F
Humidité 75%
Précipitations 0.00 pouce
Profondeur de la couche neigeuse Non disponible.
UV 0 sur 12
Pollen Non disponible.
Qualité de l'air Non disponible.
Flu Activity Non disponible.
METAR VTBD 051900Z 21005KT 9999 FEW020 BKN120 BKN300 29/23 Q1005 NOSIG

More Conditions Fewer Conditions

Pression 29.68 pouce
Visibilité 6.2 Miles terrestres
Nuages Peu 2000 ft
Nuageux 12000 ft
Nuageux 30000 ft
indice de chaleur 92 ° F
Point de rosée 75 ° F
Humidité 75%
Précipitations 0.00 pouce
Profondeur de la couche neigeuse Non disponible.
UV 0 sur 12
Pollen Non disponible.
Qualité de l'air Non disponible.
Flu Activity Non disponible.
METAR VTBD 051900Z 21005KT 9999 FEW020 BKN120 BKN300 29/23 Q1005 NOSIG

More Conditions Fewer Conditions

10-Day Weather Forecast

×

Almanac

Astronomie

Jul. 06, 2015 Lever Coucher
Temps réel
Crépuscule civil
Crépuscule nautique
Crépuscule astronomique
Lune
Durée de lumière visible
Longueur du jour
Tomorrow will be .
, % of the Moon is Illuminated

Extrêmes aujourd'hui

Country Highs Country Lows

Community

WunderPhotos

Upload Photos

1,835,354 Photos téléchargées !

WunderBlogs® & News

Nearby

Qualité de l'air

  Qualité de l'air Indice de la qualité de l'air Polluant
Not available.

Épaisseur de neige

Station Depth Altitude

Activité sismique

Ville Distance Mag. Time & Date
Minimum magnitude displayed is 2.5.

Températures des eaux côtières

Lieu Température

Stations

Stations météo à proximité

Emplacement de la station Température Refroidissement éolien Point de rosée Humidité Vent Precip. Alt. Mise à jour Type